This is the latest recevied weather packets stored in our database for station/object OH2MUI. If no packets are shown the sender has not sent any weather packets the latest 10 day(s).
| Time | Temp. | Humidity | Pressure | Rain* | Wind** | Luminosity | Snow |
|---|---|---|---|---|---|---|---|
| 1777889504 | 8.89° C | 80% | 1004.7 hPa | 0 mm | - | - | - |
| 1777888508 | - | - | - | - | - | - | - |
| 1777888499 | 8.89° C | 79% | 1004.9 hPa | 0 mm | - | - | - |
| 1777887391 | 8.89° C | 76% | 1005.3 hPa | 0 mm | - | - | - |
| 1777886339 | 9.44° C | 75% | 1005.3 hPa | 0 mm | - | - | - |
| 1777885344 | 9.44° C | 72% | 1005.5 hPa | 0 mm | - | - | - |
| 1777884314 | 10° C | 66% | 1005.7 hPa | 0 mm | - | - | - |
| 1777883247 | 10.56° C | 63% | 1005.6 hPa | 0 mm | - | - | - |
| 1777882144 | 11.11° C | 63% | 1005.6 hPa | 0 mm | - | - | - |
| 1777881072 | 10.56° C | 62% | 1005.8 hPa | 0 mm | - | - | - |
| 1777880114 | 10.56° C | 62% | 1005.7 hPa | 0 mm | - | - | - |
| 1777879132 | 10.56° C | 61% | 1005.5 hPa | 0 mm | - | - | - |
| 1777878087 | 10° C | 65% | 1005.5 hPa | 0 mm | - | - | - |
| 1777878084 | 10° C | 65% | 1005.5 hPa | 0 mm | - | - | - |
| 1777877054 | 8.89° C | 67% | 1005.7 hPa | 0 mm | - | - | - |
| 1777875889 | 8.89° C | 66% | 1005.6 hPa | 0 mm | - | - | - |
| 1777874776 | 7.78° C | 67% | 1006 hPa | 0 mm | - | - | - |
| 1777873739 | 7.22° C | 68% | 1006.2 hPa | 0 mm | - | - | - |
| 1777872709 | 7.22° C | 70% | 1006.5 hPa | 0 mm | - | - | - |
| 1777871620 | 6.67° C | 70% | 1006.7 hPa | 0 mm | - | - | - |
| 1777870424 | 6.67° C | 71% | 1006.9 hPa | 0 mm | - | - | - |
| 1777869264 | 6.11° C | 72% | 1006.8 hPa | 0 mm | - | - | - |
| 1777868224 | 6.11° C | 73% | 1007.1 hPa | 0 mm | - | - | - |
| 1777867111 | 5.56° C | 73% | 1007.2 hPa | 0 mm | - | - | - |
| 1777866092 | 5.56° C | 75% | 1007.4 hPa | 0 mm | - | - | - |
* Rain latest hour (hover to see other rain measurements)
** Current wind speed in m/s (hover to see current wind gust speed)